Lawrenceville, IL

8:17 AM CDT on October 19, 2017 (GMT -0500)
Lawrenceville-Vincennes International

Weather History for KLWV - July, 2012

Change the Weather History Date:

Monday, July 30, 2012

  Actual Average Record
Temperature  
Mean Temperature 83 °F 78 °F  
Max Temperature 94 °F 88 °F 100 °F (1999)
Min Temperature 71 °F 67 °F 55 °F (2014)
Degree Days  
Heating Degree Days 0 0  
Month to date heating degree days 0 0  
Since 1 June heating degree days 12 7  
Since 1 July heating degree days 0 0  
Cooling Degree Days 18 12  
Month to date cooling degree days 581 389  
Year to date cooling degree days 1202 818  
Since 1 June cooling degree days 893 679  
Growing Degree Days 32 (Base 50)    
Moisture  
Dew Point 66 °F    
Average Humidity 63    
Maximum Humidity 84    
Minimum Humidity 41    
Precipitation  
Precipitation 0.00 in 0.11 in 1.77 in (1998)
Month to date precipitation 0.92 4.31  
Year to date precipitation 12.57 25.85  
Sea Level Pressure  
Sea Level Pressure 29.92 in    
Wind  
Wind Speed 5 mph (SE)    
Max Wind Speed 13 mph    
Max Gust Speed 19 mph    
Visibility 9 miles    
Events      
T = Trace of Precipitation, MM = Missing Value Source: NWS Daily Summary

Daily Weather History Graph

Daily Weather History Graph

Search for Another Location

Airport or City:

Trip Planner

Search our weather history database for the weather conditions in past years. The results will help you decide how hot, cold, wet, or windy it might be!

Date:

Astronomy

Jul. 30, 2012 Rise Set
Actual Time 5:50 AM CDT 8:02 PM CDT
Civil Twilight 5:20 AM CDT 8:32 PM CDT
Nautical Twilight 4:44 AM CDT 9:08 PM CDT
Astronomical Twilight 4:04 AM CDT 9:48 PM CDT
Moon 6:03 PM CDT (7/30) 3:05 AM CDT (7/30)
Length of Visible Light 15h 11m
Length of Day
14h 12m
Waxing Gibbous, 92% of the Moon is Illuminated
Jul 30
Waxing Gibbous
Aug 1
Full
Aug 9
Last Quarter
Aug 17
New
Aug 24
First Quarter

Hourly Weather History & Observations

Time (CDT) Temp. Heat Index Dew Point Humidity Pressure Visibility Wind Dir Wind Speed Gust Speed Precip Events Conditions
12:53 AM 72.0 °F - 63.0 °F 73% 29.98 in 9.0 mi SE 3.5 mph - N/A   Clear
1:53 AM 72.0 °F - 64.9 °F 78% 29.97 in 9.0 mi Calm Calm - N/A   Partly Cloudy
2:53 AM 72.0 °F - 64.9 °F 78% 29.95 in 8.0 mi Calm Calm - N/A   Mostly Cloudy
3:53 AM 72.0 °F - 66.0 °F 81% 29.95 in 7.0 mi SSE 4.6 mph - N/A   Overcast
4:53 AM 72.0 °F - 66.0 °F 81% 29.95 in 7.0 mi ESE 3.5 mph - N/A   Overcast
5:53 AM 73.0 °F - 66.0 °F 79% 29.96 in 7.0 mi East 3.5 mph - N/A   Overcast
6:53 AM 73.9 °F - 66.0 °F 76% 29.96 in 6.0 mi ENE 3.5 mph - N/A   Haze
7:53 AM 75.0 °F - 66.9 °F 76% 29.96 in 6.0 mi East 4.6 mph - N/A   Haze
8:53 AM 82.0 °F 84.5 °F 66.9 °F 60% 29.95 in 10.0 mi South 8.1 mph - N/A   Scattered Clouds
9:53 AM 84.0 °F 86.3 °F 66.0 °F 55% 29.96 in 10.0 mi South 10.4 mph - N/A   Overcast
10:53 AM 86.0 °F 88.2 °F 66.0 °F 51% 29.94 in 10.0 mi SSE 9.2 mph - N/A   Scattered Clouds
11:53 AM 88.0 °F 89.3 °F 64.0 °F 45% 29.94 in 10.0 mi SE 10.4 mph - N/A   Overcast
12:53 PM 89.1 °F 91.0 °F 64.9 °F 45% 29.92 in 10.0 mi SE 11.5 mph - N/A   Mostly Cloudy
1:53 PM 91.9 °F 94.1 °F 64.9 °F 41% 29.90 in 10.0 mi SSE 9.2 mph - N/A   Partly Cloudy
2:53 PM 91.9 °F 94.1 °F 64.9 °F 41% 29.89 in 10.0 mi ESE 9.2 mph - N/A   Mostly Cloudy
3:53 PM 91.0 °F 93.8 °F 66.0 °F 44% 29.89 in 10.0 mi East 6.9 mph - N/A   Mostly Cloudy
4:53 PM 91.0 °F 93.8 °F 66.0 °F 44% 29.88 in 10.0 mi SE 5.8 mph - N/A   Scattered Clouds
5:53 PM 90.0 °F 92.4 °F 66.0 °F 45% 29.86 in 10.0 mi SE 3.5 mph - N/A   Mostly Cloudy
6:53 PM 88.0 °F 90.7 °F 66.9 °F 49% 29.87 in 10.0 mi ESE 4.6 mph - N/A   Overcast
7:53 PM 84.9 °F 88.2 °F 68.0 °F 57% 29.89 in 9.0 mi Calm Calm - N/A   Scattered Clouds
8:53 PM 82.0 °F 84.9 °F 68.0 °F 62% 29.89 in 10.0 mi ESE 3.5 mph - N/A   Partly Cloudy
9:53 PM 82.9 °F 85.4 °F 66.9 °F 58% 29.90 in 9.0 mi Calm Calm - N/A   Overcast
10:53 PM 79.0 °F - 69.1 °F 72% 29.90 in 9.0 mi SE 3.5 mph - N/A   Scattered Clouds
11:53 PM 79.0 °F - 66.9 °F 66% 29.91 in 9.0 mi NW 4.6 mph - N/A   Clear